TimeCDT,TemperatureF,Dew PointF,Humidity,Sea Level PressureIn,VisibilityMPH,Wind Direction,Wind SpeedMPH,Gust SpeedMPH,PrecipitationIn,Events,Conditions,WindDirDegrees,DateUTC
12:53 AM,73.0,66.0,79,29.71,10.0,South,11.5,21.9,N/A,,Clear,170,2013-05-27 05:53:00
1:53 AM,72.0,64.9,78,29.74,10.0,SSE,8.1,19.6,N/A,,Mostly Cloudy,150,2013-05-27 06:53:00
2:53 AM,68.0,63.0,84,29.76,10.0,East,11.5,-,N/A,,Overcast,100,2013-05-27 07:53:00
3:10 AM,64.4,57.2,77,29.81,10.0,ENE,16.1,27.6,N/A,,Overcast,70,2013-05-27 08:10:00
3:23 AM,62.6,57.2,82,29.81,10.0,ENE,17.3,24.2,N/A,,Overcast,70,2013-05-27 08:23:00
3:53 AM,63.0,57.9,84,29.75,10.0,East,13.8,-,N/A,,Overcast,90,2013-05-27 08:53:00
4:00 AM,62.6,57.2,82,29.78,10.0,East,12.7,-,N/A,,Overcast,100,2013-05-27 09:00:00
4:53 AM,62.1,57.9,86,29.75,10.0,East,12.7,-,N/A,,Overcast,80,2013-05-27 09:53:00
5:09 AM,60.8,57.2,88,29.81,10.0,ENE,13.8,-,0.00,Rain,Light Rain,70,2013-05-27 10:09:00
5:18 AM,60.8,57.2,88,29.81,10.0,East,15.0,-,0.00,Rain-Thunderstorm,Light Rain,90,2013-05-27 10:18:00
5:45 AM,60.8,57.2,88,29.79,10.0,East,10.4,-,0.01,Thunderstorm,Thunderstorm,90,2013-05-27 10:45:00
5:53 AM,60.1,57.9,93,29.75,10.0,East,10.4,20.7,0.01,Rain-Thunderstorm,Light Rain,100,2013-05-27 10:53:00
6:01 AM,60.8,57.2,88,29.80,10.0,East,10.4,-,0.00,,Overcast,90,2013-05-27 11:01:00
6:17 AM,60.8,57.2,88,29.80,10.0,East,15.0,23.0,0.00,,Overcast,80,2013-05-27 11:17:00
6:53 AM,60.1,57.9,93,29.77,10.0,East,16.1,29.9,0.00,,Overcast,80,2013-05-27 11:53:00
7:07 AM,60.8,57.2,88,29.81,10.0,East,16.1,35.7,0.01,,Overcast,90,2013-05-27 12:07:00
7:53 AM,60.1,57.0,90,29.76,10.0,East,19.6,29.9,0.01,,Overcast,100,2013-05-27 12:53:00
8:43 AM,60.8,57.2,88,29.78,10.0,ESE,21.9,34.5,N/A,,Overcast,120,2013-05-27 13:43:00
8:53 AM,61.0,57.0,87,29.74,10.0,ESE,19.6,32.2,N/A,,Mostly Cloudy,120,2013-05-27 13:53:00
9:53 AM,66.0,57.9,75,29.71,10.0,SE,23.0,35.7,N/A,,Clear,140,2013-05-27 14:53:00
10:53 AM,68.0,59.0,73,29.73,10.0,SE,17.3,29.9,N/A,,Clear,140,2013-05-27 15:53:00
11:53 AM,72.0,60.1,66,29.73,10.0,ESE,13.8,24.2,N/A,,Mostly Cloudy,120,2013-05-27 16:53:00
12:53 PM,73.9,57.9,57,29.71,10.0,SSE,17.3,24.2,N/A,,Overcast,150,2013-05-27 17:53:00
1:53 PM,77.0,59.0,54,29.67,10.0,SE,17.3,24.2,N/A,,Overcast,130,2013-05-27 18:53:00
2:53 PM,78.1,59.0,52,29.65,10.0,SE,17.3,27.6,N/A,,Overcast,130,2013-05-27 19:53:00
3:53 PM,79.0,61.0,54,29.64,10.0,SE,11.5,18.4,N/A,,Mostly Cloudy,130,2013-05-27 20:53:00
4:53 PM,79.0,63.0,58,29.62,10.0,East,10.4,-,N/A,,Mostly Cloudy,100,2013-05-27 21:53:00
5:37 PM,77.0,62.6,61,29.63,10.0,East,12.7,-,N/A,Thunderstorm,Mostly Cloudy,90,2013-05-27 22:37:00
5:53 PM,75.9,63.0,64,29.59,10.0,East,11.5,-,0.00,Rain-Thunderstorm,Light Thunderstorms and Rain,80,2013-05-27 22:53:00
6:35 PM,71.6,64.4,78,29.63,5.0,North,18.4,-,0.10,Rain-Thunderstorm,Heavy Thunderstorms and Rain,360,2013-05-27 23:35:00
6:53 PM,70.0,64.9,84,29.60,2.0,East,12.7,24.2,0.45,Rain-Thunderstorm,Heavy Thunderstorms and Rain,90,2013-05-27 23:53:00
7:00 PM,69.8,66.2,88,29.61,2.0,ENE,13.8,21.9,0.09,Rain-Thunderstorm,Heavy Thunderstorms and Rain,60,2013-05-28 00:00:00
7:11 PM,68.0,66.2,94,29.61,4.0,ENE,15.0,21.9,0.13,Rain-Thunderstorm,Light Thunderstorms and Rain,70,2013-05-28 00:11:00
7:53 PM,66.0,62.1,87,29.62,10.0,East,10.4,-,0.15,Thunderstorm,Thunderstorm,100,2013-05-28 00:53:00
8:25 PM,66.2,60.8,83,29.58,10.0,East,23.0,38.0,N/A,,Partly Cloudy,100,2013-05-28 01:25:00
8:53 PM,66.0,57.0,73,29.55,10.0,East,11.5,24.2,N/A,,Clear,90,2013-05-28 01:53:00
9:53 PM,66.0,57.0,73,29.59,10.0,East,12.7,19.6,N/A,,Clear,100,2013-05-28 02:53:00
10:53 PM,63.0,57.9,84,29.69,10.0,NW,6.9,-,N/A,,Clear,320,2013-05-28 03:53:00
11:53 PM,62.1,57.0,84,29.65,10.0,NNE,4.6,-,N/A,,Clear,30,2013-05-28 04:53:00